EW8528 Weather Reports


Display with metric or nautical units.
time (UTC)temp
F
wind
direction
speed
MPH
gust
MPH
rain 1hr
in
rain 24hr
in
rain mn
in
humidity
%
barometer
mb
20220629164600 80 98 2.0 7.0 0.00 0.00 0.00 42 1022.1
20220629164041 80 109 2.0 8.0 0.00 0.00 0.00 42 1022.2
20220629163537 80 76 3.0 8.0 0.00 0.00 0.00 41 1022.3
20220629163049 81 203 3.0 11.0 0.00 0.00 0.00 42 1022.3
20220629162540 81 113 3.0 11.0 0.00 0.00 0.00 41 1022.3
20220629162040 81 144 2.0 6.0 0.00 0.00 0.00 40 1022.3
20220629161548 81 113 1.0 5.0 0.00 0.00 0.00 41 1022.4
20220629161043 81 93 2.0 5.0 0.00 0.00 0.00 44 1022.4
20220629160541 81 32 1.0 6.0 0.00 0.00 0.00 45 1022.4
20220629160048 80 264 1.0 6.0 0.00 0.00 0.00 45 1022.4
20220629155541 80 63 3.0 9.0 0.00 0.00 0.00 41 1022.5
20220629155041 80 152 3.0 9.0 0.00 0.00 0.00 44 1022.6
20220629154602 79 34 1.0 6.0 0.00 0.00 0.00 44 1022.5
20220629154040 78 146 2.0 6.0 0.00 0.00 0.00 47 1022.6
20220629153541 79 194 2.0 6.0 0.00 0.00 0.00 49 1022.6
20220629153055 79 105 1.0 4.0 0.00 0.00 0.00 49 1022.5
20220629152541 78 169 1.0 5.0 0.00 0.00 0.00 49 1022.5
20220629152041 78 101 2.0 5.0 0.00 0.00 0.00 51 1022.7
20220629151559 77 163 0.0 4.0 0.00 0.00 0.00 53 1022.6
20220629151040 77 219 2.0 5.0 0.00 0.00 0.00 51 1022.8
20220629150543 77 177 2.0 5.0 0.00 0.00 0.00 49 1022.8
20220629150101 77 157 2.0 3.0 0.00 0.00 0.00 51 1022.9
20220629145543 77 152 1.0 3.0 0.00 0.00 0.00 50 1022.9
20220629145040 78 113 1.0 3.0 0.00 0.00 0.00 51 1022.7
20220629144606 78 30 0.0 3.0 0.00 0.00 0.00 48 1022.8
20220629144036 77 140 2.0 4.0 0.00 0.00 0.00 51 1022.7
20220629143540 77 70 2.0 4.0 0.00 0.00 0.00 51 1022.8
20220629143058 77 82 2.0 4.0 0.00 0.00 0.00 51 1022.8
20220629142540 77 0 1.0 3.0 0.00 0.00 0.00 55 1022.7
20220629142043 77 115 1.0 6.0 0.00 0.00 0.00 52 1022.7
20220629141551 77 112 3.0 6.0 0.00 0.00 0.00 53 1022.7
20220629141037 77 153 1.0 4.0 0.00 0.00 0.00 56 1022.7
20220629140540 77 66 0.0 4.0 0.00 0.00 0.00 60 1022.7
20220629140050 76 91 1.0 4.0 0.00 0.00 0.00 58 1022.8
20220629135540 75 120 0.0 2.0 0.00 0.00 0.00 58 1022.7
20220629135040 75 122 1.0 3.0 0.00 0.00 0.00 59 1022.8
20220629134550 75 110 1.0 3.0 0.00 0.00 0.00 60 1022.7
20220629134040 74 44 1.0 3.0 0.00 0.00 0.00 64 1022.7
20220629133537 74 339 2.0 3.0 0.00 0.00 0.00 62 1022.9
20220629133058 73 113 0.0 3.0 0.00 0.00 0.00 65 1022.8
20220629132540 73 0 1.0 3.0 0.00 0.00 0.00 63 1022.9
20220629132037 73 14 1.0 3.0 0.00 0.00 0.00 66 1023.0
20220629131603 72 115 1.0 4.0 0.00 0.00 0.00 67 1023.0
20220629131040 72 10 0.0 4.0 0.00 0.00 0.00 72 1023.1
20220629130540 71 32 0.0 3.0 0.00 0.00 0.00 70 1023.0
20220629130057 71 352 1.0 3.0 0.00 0.00 0.00 72 1023.0
20220629125540 70 27 0.0 1.0 0.00 0.00 0.00 74 1023.0
20220629125040 70 37 0.0 3.0 0.00 0.00 0.00 76 1023.0
20220629124603 69 37 1.0 3.0 0.00 0.00 0.00 76 1023.0
20220629124040 69 104 0.0 1.0 0.00 0.00 0.00 78 1023.1
20220629123543 68 0 0.0 1.0 0.00 0.00 0.00 79 1023.1
20220629123050 68 0 0.0 1.0 0.00 0.00 0.00 80 1023.2
20220629122542 67 105 0.0 1.0 0.00 0.00 0.00 82 1023.2
20220629122046 67 0 0.0 1.0 0.00 0.00 0.00 82 1023.2
20220629121550 67 105 0.0 2.0 0.00 0.00 0.00 82 1023.2
20220629121043 66 105 0.0 2.0 0.00 0.00 0.00 83 1023.2
20220629120542 66 105 0.0 2.0 0.00 0.00 0.00 83 1023.1
20220629120056 65 105 0.0 1.0 0.00 0.00 0.00 85 1023.1
20220629115545 65 105 0.0 1.0 0.00 0.00 0.00 86 1023.0
20220629115041 64 105 0.0 1.0 0.00 0.00 0.00 86 1023.0
20220629114552 64 105 0.0 1.0 0.00 0.00 0.00 87 1023.0
20220629114042 64 105 0.0 1.0 0.00 0.00 0.00 88 1023.1
20220629113542 63 105 0.0 1.0 0.00 0.00 0.00 88 1023.0
20220629113101 63 0 0.0 1.0 0.00 0.00 0.00 88 1023.0
20220629112544 63 105 0.0 1.0 0.00 0.00 0.00 89 1023.0
20220629112042 62 0 0.0 1.0 0.00 0.00 0.00 89 1023.2
20220629111604 62 0 0.0 1.0 0.00 0.00 0.00 89 1023.1
20220629111043 62 105 0.0 2.0 0.00 0.00 0.00 89 1023.0
20220629110542 62 105 0.0 2.0 0.00 0.00 0.00 90 1023.0
20220629110103 62 105 0.0 2.0 0.00 0.00 0.00 90 1023.1
20220629105542 61 105 0.0 1.0 0.00 0.00 0.00 92 1023.1
20220629105042 61 0 0.0 1.0 0.00 0.00 0.00 93 1023.1
20220629104558 61 106 0.0 1.0 0.00 0.00 0.00 94 1023.0
20220629104046 60 105 1.0 1.0 0.00 0.00 0.00 95 1023.0
20220629103542 60 0 0.0 0.0 0.00 0.00 0.00 95 1023.1
20220629103102 60 0 0.0 0.0 0.00 0.00 0.00 95 1023.1
20220629102542 60 0 0.0 0.0 0.00 0.00 0.00 95 1023.1
20220629102040 60 0 0.0 0.0 0.00 0.00 0.00 95 1023.0
20220629101546 59 0 0.0 0.0 0.00 0.00 0.00 95 1023.0
20220629101041 59 0 0.0 0.0 0.00 0.00 0.00 96 1023.0
20220629100543 59 0 0.0 0.0 0.00 0.00 0.00 96 1022.9
20220629100101 59 0 0.0 0.0 0.00 0.00 0.00 96 1022.8
20220629095545 58 0 0.0 0.0 0.00 0.00 0.00 95 1022.8
20220629095042 58 0 0.0 0.0 0.00 0.00 0.00 96 1022.7
20220629094606 58 0 0.0 0.0 0.00 0.00 0.00 95 1022.7
20220629094043 58 0 0.0 1.0 0.00 0.00 0.00 95 1022.6
20220629093544 58 0 0.0 1.0 0.00 0.00 0.00 95 1022.6
20220629093106 58 0 0.0 1.0 0.00 0.00 0.00 95 1022.5
20220629092641 58 0 0.0 0.0 0.00 0.00 0.00 95 1022.4
20220629092041 58 0 0.0 0.0 0.00 0.00 0.00 95 1022.4
20220629091546 58 0 0.0 0.0 0.00 0.00 0.00 95 1022.5
20220629091042 58 0 0.0 0.0 0.00 0.00 0.00 95 1022.4
20220629090542 58 0 0.0 0.0 0.00 0.00 0.00 95 1022.3
20220629090105 58 0 0.0 0.0 0.00 0.00 0.00 94 1022.6
20220629085544 58 0 0.0 0.0 0.00 0.00 0.00 94 1022.5
20220629085044 58 0 0.0 0.0 0.00 0.00 0.00 94 1022.5
20220629084555 58 0 0.0 0.0 0.00 0.00 0.00 94 1022.2
20220629084042 58 0 0.0 0.0 0.00 0.00 0.00 94 1022.4
20220629083541 58 0 0.0 0.0 0.00 0.00 0.00 94 1022.3
20220629083055 58 0 0.0 0.0 0.00 0.00 0.00 94 1022.3
20220629082540 58 0 0.0 0.0 0.00 0.00 0.00 94 1022.4
20220629082044 58 0 0.0 0.0 0.00 0.00 0.00 94 1022.3
20220629081549 58 0 0.0 0.0 0.00 0.00 0.00 94 1022.2
20220629081041 58 0 0.0 0.0 0.00 0.00 0.00 94 1022.2
20220629080541 59 0 0.0 0.0 0.00 0.00 0.00 94 1022.2
20220629080051 59 0 0.0 0.0 0.00 0.00 0.00 93 1022.1
20220629075542 59 0 0.0 0.0 0.00 0.00 0.00 93 1022.2
20220629075042 59 0 0.0 0.0 0.00 0.00 0.00 93 1022.1
20220629074555 59 0 0.0 1.0 0.00 0.00 0.00 93 1022.2
20220629074044 60 0 0.0 1.0 0.00 0.00 0.00 94 1022.1
20220629073544 60 106 0.0 1.0 0.00 0.00 0.00 94 1022.1
20220629073048 60 106 0.0 1.0 0.00 0.00 0.00 94 1022.1
20220629072541 60 0 0.0 1.0 0.00 0.00 0.00 93 1022.0
20220629072042 60 0 0.0 1.0 0.00 0.00 0.00 93 1022.0
20220629071546 60 0 0.0 1.0 0.00 0.00 0.00 93 1022.0
20220629071042 60 0 0.0 1.0 0.00 0.00 0.00 93 1022.0
20220629070542 60 0 0.0 1.0 0.00 0.00 0.00 93 1022.0
20220629070051 60 106 0.0 1.0 0.00 0.00 0.00 93 1022.0
20220629065543 60 105 0.0 1.0 0.00 0.00 0.00 93 1022.1
20220629065043 60 0 0.0 1.0 0.00 0.00 0.00 93 1022.0
20220629064549 60 0 0.0 1.0 0.00 0.00 0.00 93 1022.0
20220629064042 60 0 0.0 0.0 0.00 0.00 0.00 93 1022.0
20220629063542 60 0 0.0 0.0 0.00 0.00 0.00 93 1022.0
20220629063059 60 0 0.0 0.0 0.00 0.00 0.00 92 1022.0
20220629062542 60 0 0.0 0.0 0.00 0.00 0.00 92 1022.2
20220629062041 60 0 0.0 0.0 0.00 0.00 0.00 92 1022.0
20220629061555 60 0 0.0 0.0 0.00 0.00 0.00 92 1022.0
20220629061042 60 0 0.0 0.0 0.00 0.00 0.00 92 1022.0
20220629060545 60 0 0.0 0.0 0.00 0.00 0.00 91 1022.0
20220629060058 60 0 0.0 0.0 0.00 0.00 0.00 91 1021.9
20220629055540 60 0 0.0 0.0 0.00 0.00 0.00 91 1021.8
20220629055041 60 0 0.0 0.0 0.00 0.00 0.00 91 1022.0
20220629054558 61 0 0.0 0.0 0.00 0.00 0.00 91 1021.8
20220629054041 61 0 0.0 0.0 0.00 0.00 0.00 91 1021.8
20220629053542 61 0 0.0 0.0 0.00 0.00 0.00 91 1021.9
20220629053102 61 0 0.0 1.0 0.00 0.00 0.00 91 1021.8
20220629052540 61 0 0.0 1.0 0.00 0.00 0.00 91 1022.0
20220629052041 61 0 0.0 0.0 0.00 0.00 0.00 91 1021.9
20220629051554 61 0 0.0 0.0 0.00 0.00 0.00 91 1021.9
20220629051042 61 0 0.0 0.0 0.00 0.00 0.00 90 1021.8
20220629050541 61 0 0.0 0.0 0.00 0.00 0.00 90 1021.7
20220629050049 61 0 0.0 0.0 0.00 0.00 0.00 90 1021.7
20220629045543 61 0 0.0 0.0 0.00 0.00 0.00 90 1021.7
20220629045041 61 0 0.0 0.0 0.00 0.00 0.00 90 1021.7
20220629044556 61 0 0.0 0.0 0.00 0.00 0.00 89 1021.6
20220629044044 61 0 0.0 0.0 0.00 0.00 0.00 89 1021.7
20220629043540 61 0 0.0 0.0 0.00 0.00 0.00 89 1021.6
20220629043053 61 0 0.0 0.0 0.00 0.00 0.00 89 1021.6
20220629042541 61 0 0.0 0.0 0.00 0.00 0.00 89 1021.7
20220629042041 61 0 0.0 0.0 0.00 0.00 0.00 89 1021.5
20220629041550 61 0 0.0 1.0 0.00 0.00 0.00 88 1021.6
20220629041040 62 0 0.0 1.0 0.00 0.00 0.00 88 1021.5
20220629040545 62 0 0.0 1.0 0.00 0.00 0.00 88 1021.3
20220629040101 62 106 0.0 1.0 0.00 0.00 0.00 88 1021.4
20220629035541 62 0 0.0 1.0 0.00 0.00 0.00 88 1021.3
20220629035041 62 0 0.0 1.0 0.00 0.00 0.00 88 1021.3
20220629034551 62 0 0.0 1.0 0.00 0.00 0.00 88 1021.3
20220629034041 62 0 0.0 1.0 0.00 0.00 0.00 87 1021.4
20220629033547 62 0 0.0 0.0 0.00 0.00 0.00 87 1021.3
20220629033103 62 0 0.0 0.0 0.00 0.00 0.00 87 1021.2
20220629032541 62 0 0.0 0.0 0.00 0.00 0.00 88 1021.3
20220629032044 62 0 0.0 0.0 0.00 0.00 0.00 88 1021.2
20220629031549 62 0 0.0 0.0 0.00 0.00 0.00 88 1021.1
20220629031041 62 0 0.0 0.0 0.00 0.00 0.00 87 1021.1
20220629030541 62 0 0.0 0.0 0.00 0.00 0.00 86 1021.2
20220629030105 62 0 0.0 0.0 0.00 0.00 0.00 86 1021.1
20220629025540 62 0 0.0 0.0 0.00 0.00 0.00 85 1021.0
20220629025044 63 0 0.0 0.0 0.00 0.00 0.00 85 1020.9
20220629024555 63 0 0.0 0.0 0.00 0.00 0.00 86 1020.9
20220629024043 63 0 0.0 0.0 0.00 0.00 0.00 85 1020.9
20220629023541 63 0 0.0 0.0 0.00 0.00 0.00 85 1020.8
20220629023058 63 0 0.0 0.0 0.00 0.00 0.00 84 1021.0
20220629022541 63 0 0.0 0.0 0.00 0.00 0.00 83 1020.9
20220629022041 63 0 0.0 1.0 0.00 0.00 0.00 84 1021.0
20220629021554 63 0 0.0 1.0 0.00 0.00 0.00 84 1020.9
20220629021041 63 0 0.0 0.0 0.00 0.00 0.00 84 1020.9
20220629020542 63 0 0.0 1.0 0.00 0.00 0.00 84 1020.9
20220629020105 63 0 0.0 1.0 0.00 0.00 0.00 83 1020.9
20220629015541 64 0 0.0 0.0 0.00 0.00 0.00 82 1021.0
20220629015040 64 0 0.0 0.0 0.00 0.00 0.00 82 1020.9
20220629014606 64 0 0.0 0.0 0.00 0.00 0.00 81 1020.9
20220629014040 64 0 0.0 0.0 0.00 0.00 0.00 81 1020.8
20220629013545 65 0 0.0 0.0 0.00 0.00 0.00 80 1020.9
20220629013103 65 0 0.0 0.0 0.00 0.00 0.00 80 1020.8
20220629012541 65 0 0.0 0.0 0.00 0.00 0.00 80 1020.7
20220629012041 65 0 0.0 0.0 0.00 0.00 0.00 79 1020.6
20220629011601 65 0 0.0 0.0 0.00 0.00 0.00 78 1020.6
20220629011041 66 0 0.0 0.0 0.00 0.00 0.00 77 1020.3
20220629010542 66 0 0.0 0.0 0.00 0.00 0.00 77 1020.5
20220629010100 66 0 0.0 0.0 0.00 0.00 0.00 76 1020.4
20220629005542 66 0 0.0 0.0 0.00 0.00 0.00 76 1020.4
20220629005042 67 0 0.0 0.0 0.00 0.00 0.00 75 1020.5
20220629004605 67 0 0.0 0.0 0.00 0.00 0.00 74 1020.3
20220629004042 67 0 0.0 1.0 0.00 0.00 0.00 73 1020.3
20220629003542 68 0 0.0 1.0 0.00 0.00 0.00 73 1020.2
20220629003101 68 0 0.0 1.0 0.00 0.00 0.00 72 1020.0
20220629002543 68 105 0.0 1.0 0.00 0.00 0.00 72 1020.0
20220629002042 68 105 0.0 1.0 0.00 0.00 0.00 71 1020.0
20220629001558 69 115 0.0 1.0 0.00 0.00 0.00 71 1020.0
20220629001042 69 0 0.0 1.0 0.00 0.00 0.00 70 1019.9
20220629000541 69 0 0.0 1.0 0.00 0.00 0.00 70 1019.9
20220629000107 70 0 0.0 1.0 0.00 0.00 0.00 69 1020.0
20220628235541 70 0 0.0 1.0 0.00 0.00 0.00 69 1019.9
20220628235041 70 0 0.0 2.0 0.00 0.00 0.00 68 1019.9
20220628234558 70 0 0.0 2.0 0.00 0.00 0.00 68 1019.8
20220628234041 71 116 0.0 3.0 0.00 0.00 0.00 67 1019.8
20220628233541 71 116 0.0 3.0 0.00 0.00 0.00 66 1019.7
20220628233052 71 116 1.0 2.0 0.00 0.00 0.00 65 1019.7
20220628232541 72 94 0.0 2.0 0.00 0.00 0.00 65 1019.6
20220628232042 72 119 0.0 2.0 0.00 0.00 0.00 65 1019.6
20220628231555 72 120 0.0 2.0 0.00 0.00 0.00 64 1019.4
20220628231040 72 121 0.0 2.0 0.00 0.00 0.00 63 1019.4
20220628230542 73 122 0.0 1.0 0.00 0.00 0.00 62 1019.4
20220628230055 74 0 0.0 2.0 0.00 0.00 0.00 62 1019.3
20220628225544 74 123 0.0 2.0 0.00 0.01 0.00 61 1019.3
20220628225043 74 0 0.0 2.0 0.00 0.01 0.00 61 1019.3
20220628224551 74 117 1.0 3.0 0.00 0.01 0.00 60 1019.2
20220628224042 75 0 0.0 3.0 0.00 0.01 0.00 59 1019.3
20220628223541 76 123 0.0 3.0 0.00 0.01 0.00 56 1019.2
20220628223050 77 102 1.0 2.0 0.00 0.01 0.00 56 1019.2
20220628222541 78 103 1.0 3.0 0.00 0.01 0.00 54 1019.2
20220628222041 78 335 1.0 3.0 0.00 0.01 0.00 54 1019.1
20220628221557 78 39 1.0 3.0 0.00 0.01 0.00 54 1019.1
20220628221045 77 352 1.0 3.0 0.00 0.01 0.00 52 1019.1
20220628220541 77 98 1.0 2.0 0.00 0.01 0.00 55 1019.0
20220628220107 76 46 1.0 3.0 0.00 0.01 0.00 52 1018.9
20220628215541 76 115 1.0 3.0 0.00 0.06 0.00 56 1019.0
20220628215042 74 74 0.0 1.0 0.00 0.06 0.00 56 1018.9
20220628214552 74 76 0.0 1.0 0.00 0.06 0.00 55 1018.9
20220628214041 74 0 0.0 2.0 0.00 0.06 0.00 56 1018.9
20220628213541 74 36 0.0 2.0 0.00 0.06 0.00 55 1018.8
20220628213044 74 36 0.0 2.0 0.00 0.06 0.00 57 1018.8
20220628212540 74 0 0.0 2.0 0.00 0.06 0.00 57 1018.9
20220628212041 74 353 0.0 2.0 0.00 0.06 0.00 57 1018.9
20220628211559 74 347 1.0 2.0 0.00 0.06 0.00 55 1019.0
20220628211040 75 26 0.0 2.0 0.00 0.06 0.00 54 1018.9
20220628210542 75 26 1.0 2.0 0.00 0.06 0.00 54 1018.9
20220628210101 76 10 0.0 2.0 0.00 0.06 0.00 54 1018.9
20220628205540 76 110 0.0 2.0 0.00 0.06 0.00 54 1019.0
20220628205041 76 0 0.0 2.0 0.00 0.06 0.00 55 1018.8
20220628204549 77 105 0.0 4.0 0.00 0.06 0.00 54 1018.7
20220628204041 78 105 1.0 4.0 0.00 0.06 0.00 53 1018.8
20220628203541 79 114 1.0 4.0 0.00 0.06 0.00 50 1018.8
20220628203049 80 44 1.0 3.0 0.00 0.06 0.00 50 1018.7
20220628202541 81 63 1.0 4.0 0.00 0.06 0.00 51 1018.7
20220628202040 81 115 1.0 5.0 0.00 0.06 0.00 51 1018.7
20220628201558 80 65 1.0 5.0 0.00 0.06 0.00 49 1018.9
20220628201041 79 32 2.0 5.0 0.00 0.06 0.00 51 1018.9
20220628200540 78 52 0.0 4.0 0.00 0.06 0.00 52 1018.9
20220628200053 78 43 1.0 5.0 0.00 0.06 0.00 51 1018.9
20220628195544 78 70 1.0 5.0 0.00 0.12 0.00 51 1018.8
20220628195041 79 352 2.0 4.0 0.00 0.12 0.00 49 1018.7
20220628194558 78 13 1.0 4.0 0.00 0.12 0.00 55 1018.8
20220628194040 77 102 1.0 4.0 0.00 0.12 0.00 53 1018.8
20220628193541 77 354 1.0 3.0 0.00 0.12 0.00 52 1018.7
20220628193054 77 36 0.0 3.0 0.00 0.12 0.00 54 1018.9
20220628192540 77 98 1.0 4.0 0.00 0.12 0.00 55 1018.9
20220628192040 77 25 1.0 7.0 0.00 0.12 0.00 55 1018.9
20220628191558 77 115 1.0 9.0 0.00 0.12 0.00 58 1018.9
20220628191040 77 64 3.0 9.0 0.00 0.12 0.00 53 1018.8
20220628190541 79 17 1.0 5.0 0.00 0.12 0.00 51 1018.8
20220628190102 79 44 2.0 5.0 0.00 0.12 0.00 51 1018.9
20220628185541 79 311 1.0 4.0 0.00 0.20 0.00 52 1018.8
20220628185041 80 110 1.0 4.0 0.00 0.20 0.00 49 1018.9
20220628184551 80 88 2.0 4.0 0.00 0.20 0.00 49 1018.8
20220628184042 80 77 2.0 4.0 0.00 0.20 0.00 45 1018.7
20220628183540 80 68 1.0 5.0 0.00 0.20 0.00 52 1018.6
20220628183052 79 37 2.0 5.0 0.00 0.20 0.00 51 1018.7
20220628182540 78 49 2.0 5.0 0.00 0.20 0.00 52 1018.6
20220628182040 78 39 2.0 5.0 0.00 0.20 0.00 51 1018.6
20220628181547 76 349 1.0 5.0 0.00 0.20 0.00 54 1018.6
20220628181044 75 128 0.0 3.0 0.00 0.20 0.00 54 1018.6
20220628180542 75 109 1.0 3.0 0.00 0.20 0.00 54 1018.6
20220628180106 76 108 1.0 3.0 0.00 0.20 0.00 53 1018.7
20220628175543 76 0 0.0 4.0 0.00 0.48 0.00 52 1018.7
20220628175040 77 113 1.0 4.0 0.00 0.48 0.00 50 1018.8
20220628174555 79 120 2.0 4.0 0.00 0.48 0.00 52 1018.8
20220628174041 78 103 2.0 4.0 0.00 0.48 0.00 51 1018.8
20220628173541 78 41 2.0 4.0 0.00 0.48 0.00 49 1018.7
20220628173057 77 36 1.0 3.0 0.00 0.48 0.00 50 1018.9
20220628172544 77 96 1.0 3.0 0.00 0.48 0.00 57 1018.8
20220628172040 75 123 1.0 3.0 0.00 0.48 0.00 58 1018.9
20220628171549 74 86 0.0 2.0 0.00 0.48 0.00 55 1018.9
20220628171041 75 86 1.0 6.0 0.00 0.48 0.00 55 1019.0
20220628170540 75 119 1.0 6.0 0.00 0.48 0.00 54 1018.9
20220628170050 76 124 3.0 6.0 0.00 0.48 0.00 52 1019.1
20220628165540 77 97 2.0 6.0 0.00 0.60 0.00 48 1018.8
20220628165040 76 88 2.0 6.0 0.00 0.60 0.00 48 1018.8